Weather History for Andalusia, AL

Change the Weather History Date:

Monday, January 21, 2013

  Actual Average (KCEW) Record (KCEW)
Temperature  
Mean Temperature 52 °F -  
Max Temperature 68 °F 60 °F 80 °F (1982)
Min Temperature 37 °F 37 °F 21 °F (1977)
Degree Days  
Heating Degree Days 12    
Growing Degree Days 2 (Base 50)    
Moisture  
Dew Point 37 °F    
Average Humidity 57    
Maximum Humidity 82    
Minimum Humidity 32    
Precipitation  
Precipitation 0.00 in - - ()
Sea Level Pressure  
Sea Level Pressure 30.15 in    
Wind  
Wind Speed 2 mph (North)    
Max Wind Speed 12 mph    
Max Gust Speed 18 mph    
Visibility 10 miles    
Events      
Averages and records for this station are not official NWS values.
T = Trace of Precipitation, MM = Missing Value Source: NWS Daily Summary

Daily Weather History Graph

Daily Weather History Graph

Search for Another Location

Airport:

Trip Planner

Search our weather history database for the weather conditions in past years. The results will help you decide how hot, cold, wet, or windy it might be!

Date:

Astronomy

Jan. 21, 2013 Rise Set
Actual Time 6:43 AM CST 5:11 PM CST
Civil Twilight 6:17 AM CST 5:36 PM CST
Nautical Twilight 5:47 AM CST 6:06 PM CST
Astronomical Twilight 5:18 AM CST 6:35 PM CST
Moon 12:51 PM CST (1/21) 2:10 AM CST (1/21)
Length of Visible Light 11h 19m
Length of Day
10h 27m
Waxing Gibbous, 75% of the Moon is Illuminated
Jan 21
Waxing Gibbous
Jan 26
Full
Feb 3
Last Quarter
Feb 10
New
Feb 17
First Quarter

Hourly Weather History & Observations

Time (CST) Temp. Dew Point Humidity Pressure Visibility Wind Dir Wind Speed Gust Speed Precip Events Conditions
12:56 AM 43.0 °F 37.0 °F 80% 30.12 in 10.0 mi Calm Calm - N/A   Clear
1:56 AM 42.1 °F 36.0 °F 79% 30.12 in 10.0 mi Calm Calm - N/A   Clear
2:56 AM 42.1 °F 36.0 °F 79% 30.11 in 10.0 mi Calm Calm - N/A   Clear
3:56 AM 41.0 °F 35.1 °F 79% 30.10 in 10.0 mi Calm Calm - N/A   Clear
4:56 AM 39.0 °F 34.0 °F 82% 30.11 in 10.0 mi Calm Calm - N/A   Clear
5:56 AM 39.0 °F 33.1 °F 79% 30.13 in 8.0 mi Calm Calm - N/A   Clear
6:56 AM 37.0 °F 32.0 °F 82% 30.16 in 10.0 mi Calm Calm - N/A   Clear
7:56 AM 42.1 °F 36.0 °F 79% 30.17 in 9.0 mi Calm Calm - N/A   Clear
8:56 AM 51.1 °F 41.0 °F 68% 30.19 in 10.0 mi Calm Calm - N/A   Clear
9:56 AM 60.1 °F 41.0 °F 49% 30.19 in 10.0 mi Calm Calm - N/A   Clear
10:56 AM 64.0 °F 37.0 °F 37% 30.17 in 10.0 mi NNW 6.9 mph - N/A   Clear
11:56 AM 66.9 °F 37.0 °F 33% 30.13 in 10.0 mi NNE 8.1 mph - N/A   Clear
12:56 PM 66.9 °F 37.0 °F 33% 30.10 in 10.0 mi NNW 5.8 mph - N/A   Clear
1:56 PM 68.0 °F 37.0 °F 32% 30.09 in 10.0 mi North 11.5 mph - N/A   Clear
2:56 PM 68.0 °F 39.0 °F 35% 30.10 in 10.0 mi NNW 10.4 mph 18.4 mph N/A   Clear
3:56 PM 66.0 °F 37.9 °F 36% 30.12 in 10.0 mi North 6.9 mph - N/A   Clear
4:56 PM 63.0 °F 39.0 °F 41% 30.13 in 10.0 mi NNW 8.1 mph - N/A   Clear
5:56 PM 59.0 °F 39.0 °F 48% 30.15 in 10.0 mi North 6.9 mph - N/A   Clear
6:56 PM 57.0 °F 37.9 °F 49% 30.16 in 10.0 mi North 5.8 mph - N/A   Clear
7:56 PM 55.0 °F 37.0 °F 51% 30.18 in 10.0 mi NNW 3.5 mph - N/A   Clear
8:56 PM 53.1 °F 37.0 °F 55% 30.19 in 10.0 mi North 5.8 mph - N/A   Clear
9:56 PM 51.1 °F 36.0 °F 56% 30.20 in 10.0 mi North 4.6 mph - N/A   Clear
10:56 PM 48.9 °F 35.1 °F 59% 30.19 in 10.0 mi North 3.5 mph - N/A   Clear
11:56 PM 46.9 °F 33.1 °F 59% 30.19 in 10.0 mi NNE 3.5 mph - N/A   Clear